{"data":{"norad_id":82043,"epoch":"2026-09-18T14:04:53.959296Z","epoch_age_seconds":183524,"freshness":"STALE","line1":"1 82043U          26261.58673564  .00000823  00000+0  23472-3 0  9991","line2":"2 82043  97.9657  32.6845 0226711 321.3357  37.1783 14.33842652613932","mean_motion":14.33842652,"eccentricity":0.0226711,"inclination_deg":97.9657,"raan_deg":32.6845,"arg_perigee_deg":321.3357,"mean_anomaly_deg":37.1783,"bstar":0.00023472,"rev_number":61393,"period_min":100.42942982561,"perigee_km":616.65684444272,"apogee_km":941.17333162886,"semimajor_km":7157.0520880358,"source":"CELESTRAK","updated_at":"2026-09-20T09:00:32.429643Z"}}